• In Slovakia
  • List of Countries
  • For 7 days
  • Water Temperature
  • Satellite Maps
  • Weather Map
  • Weather Widgets
  • user-avatar
    Login

    Hourly Weather Suszec

    Today, 21 October, Sunday

    Time Temperature Precipitation Wind Pressure Humidity
    00:00 +7°C° 0.1 mm 3 mps 745 mmHg 79%
    01:00 +5°C° 0.1 mm 3 mps 745 mmHg 82%
    02:00 +5°C° 0.1 mm 3 mps 744 mmHg 85%
    03:00 +5°C° 0.1 mm 3 mps 744 mmHg 87%
    04:00 +5°C° 0.1 mm 3 mps 744 mmHg 89%
    05:00 +5°C° 0.1 mm 3 mps 744 mmHg 90%
    06:00 +5°C° 0.1 mm 3 mps 745 mmHg 90%
    07:00 +5°C° 0.1 mm 3 mps 745 mmHg 90%
    08:00 +7°C° 0 mm 3 mps 745 mmHg 87%
    09:00 +8°C° 0 mm 3 mps 745 mmHg 83%
    10:00 +8°C° 0 mm 3 mps 746 mmHg 80%
    11:00 +9°C° 0 mm 3 mps 746 mmHg 77%
    12:00 +10°C° 0 mm 3 mps 746 mmHg 74%
    13:00 +10°C° 0 mm 3 mps 746 mmHg 71%
    14:00 +10°C° 0 mm 3 mps 746 mmHg 71%
    15:00 +10°C° 0 mm 2 mps 746 mmHg 71%
    16:00 +10°C° 0 mm 2 mps 746 mmHg 71%
    17:00 +10°C° 0 mm 2 mps 746 mmHg 72%
    18:00 +9°C° 0 mm 2 mps 746 mmHg 74%
    19:00 +9°C° 0 mm 2 mps 746 mmHg 76%
    20:00 +8°C° 0 mm 2 mps 746 mmHg 79%
    21:00 +8°C° 0 mm 1 mps 746 mmHg 81%
    22:00 +8°C° 0 mm 1 mps 746 mmHg 83%
    23:00 +7°C° 0 mm 1 mps 746 mmHg 84%

    Tomorrow, 22 October, Monday

    Time Temperature Precipitation Wind Pressure Humidity
    00:00 +7°C° 0 mm 1 mps 746 mmHg 86%
    01:00 +7°C° 0 mm 1 mps 746 mmHg 87%
    02:00 +6°C° 0 mm 1 mps 746 mmHg 87%
    03:00 +6°C° 0 mm 1 mps 746 mmHg 88%
    04:00 +6°C° 0 mm 1 mps 745 mmHg 88%
    05:00 +6°C° 0 mm 1 mps 745 mmHg 88%
    06:00 +6°C° 0 mm 1 mps 745 mmHg 87%
    07:00 +5°C° 0 mm 0 mps 745 mmHg 87%
    08:00 +8°C° 0 mm 1 mps 745 mmHg 78%
    09:00 +10°C° 0 mm 1 mps 745 mmHg 70%
    10:00 +12°C° 0 mm 1 mps 745 mmHg 62%
    11:00 +13°C° 0 mm 1 mps 745 mmHg 58%
    12:00 +14°C° 0 mm 1 mps 745 mmHg 55%
    13:00 +14°C° 0 mm 1 mps 744 mmHg 51%
    14:00 +14°C° 0 mm 1 mps 744 mmHg 54%
    15:00 +13°C° 0 mm 1 mps 743 mmHg 56%
    16:00 +13°C° 0 mm 1 mps 743 mmHg 59%
    17:00 +11°C° 0 mm 1 mps 743 mmHg 63%
    18:00 +10°C° 0 mm 1 mps 744 mmHg 67%
    19:00 +9°C° 0 mm 1 mps 744 mmHg 72%
    20:00 +9°C° 0.1 mm 1 mps 744 mmHg 74%
    21:00 +8°C° 0.1 mm 2 mps 744 mmHg 76%
    22:00 +8°C° 0.1 mm 2 mps 744 mmHg 79%
    23:00 +8°C° 0.4 mm 3 mps 744 mmHg 81%

    Day after tomorrow, 23 October, Tuesday

    Time Temperature Precipitation Wind Pressure Humidity
    00:00 +8°C° 0.4 mm 3 mps 744 mmHg 83%
    01:00 +7°C° 0.4 mm 4 mps 744 mmHg 85%
    02:00 +6°C° 0.1 mm 4 mps 744 mmHg 86%
    03:00 +7°C° 0.1 mm 3 mps 744 mmHg 88%
    04:00 +5°C° 0.1 mm 3 mps 744 mmHg 90%
    05:00 +5°C° 0 mm 3 mps 744 mmHg 91%
    06:00 +4°C° 0 mm 3 mps 744 mmHg 92%
    07:00 +5°C° 0 mm 2 mps 744 mmHg 93%
    08:00 +6°C° 0 mm 2 mps 744 mmHg 86%
    09:00 +7°C° 0 mm 3 mps 743 mmHg 78%
    10:00 +8°C° 0 mm 3 mps 743 mmHg 71%
    11:00 +7°C° 0 mm 4 mps 742 mmHg 67%
    12:00 +8°C° 0 mm 4 mps 741 mmHg 62%
    13:00 +9°C° 0 mm 5 mps 740 mmHg 58%
    14:00 +9°C° 0.1 mm 5 mps 739 mmHg 60%
    15:00 +8°C° 0.1 mm 5 mps 738 mmHg 61%
    16:00 +8°C° 0.1 mm 6 mps 738 mmHg 63%
    17:00 +8°C° 0.6 mm 6 mps 737 mmHg 67%
    18:00 +6°C° 0.6 mm 7 mps 736 mmHg 70%
    19:00 +6°C° 0.6 mm 7 mps 735 mmHg 74%
    20:00 +6°C° 1.1 mm 7 mps 734 mmHg 75%
    21:00 +6°C° 1.1 mm 8 mps 733 mmHg 76%
    22:00 +7°C° 1.1 mm 8 mps 732 mmHg 77%
    23:00 +7°C° 0.7 mm 8 mps 731 mmHg 78%

    24 October, Wednesday

    Time Temperature Precipitation Wind Pressure Humidity
    00:00 +8°C° 0.7 mm 9 mps 731 mmHg 79%
    01:00 +10°C° 0.7 mm 9 mps 730 mmHg 80%
    02:00 +8°C° 0.9 mm 9 mps 730 mmHg 79%
    03:00 +9°C° 0.9 mm 8 mps 729 mmHg 78%
    04:00 +9°C° 0.9 mm 8 mps 729 mmHg 77%
    05:00 +7°C° 0.4 mm 8 mps 729 mmHg 74%
    06:00 +6°C° 0.4 mm 9 mps 730 mmHg 72%
    07:00 +5°C° 0.4 mm 9 mps 730 mmHg 69%
    08:00 +5°C° 0.4 mm 9 mps 731 mmHg 68%
    09:00 +3°C° 0.4 mm 9 mps 731 mmHg 68%
    10:00 +3°C° 0.4 mm 9 mps 732 mmHg 67%
    11:00 +5°C° 0.3 mm 9 mps 732 mmHg 64%
    12:00 +5°C° 0.3 mm 8 mps 732 mmHg 60%
    13:00 +5°C° 0.3 mm 8 mps 733 mmHg 57%
    14:00 +5°C° 0.3 mm 8 mps 733 mmHg 58%
    15:00 +4°C° 0.3 mm 7 mps 733 mmHg 60%
    16:00 +4°C° 0.3 mm 7 mps 733 mmHg 61%
    17:00 +3°C° 0.1 mm 6 mps 734 mmHg 63%
    18:00 +3°C° 0.1 mm 6 mps 735 mmHg 64%
    19:00 +3°C° 0.1 mm 6 mps 735 mmHg 66%
    20:00 +2°C° 0 mm 5 mps 736 mmHg 68%
    21:00 +2°C° 0 mm 5 mps 736 mmHg 69%
    22:00 +2°C° 0 mm 5 mps 737 mmHg 71%
    23:00 +1°C° 0 mm 4 mps 737 mmHg 72%

    25 October, Thursday

    Time Temperature Precipitation Wind Pressure Humidity
    00:00 +1°C° 0 mm 4 mps 737 mmHg 74%
    01:00 +1°C° 0 mm 4 mps 738 mmHg 76%
    02:00 +1°C° 0 mm 4 mps 738 mmHg 77%
    03:00 +1°C° 0 mm 4 mps 738 mmHg 78%
    04:00 0°C° 0 mm 4 mps 738 mmHg 79%
    05:00 0°C° 0 mm 4 mps 738 mmHg 79%
    06:00 +2°C° 0 mm 3 mps 738 mmHg 79%
    07:00 +2°C° 0 mm 3 mps 738 mmHg 80%
    08:00 +2°C° 0.1 mm 3 mps 738 mmHg 80%
    09:00 +3°C° 0.1 mm 4 mps 737 mmHg 80%
    10:00 +4°C° 0.1 mm 4 mps 737 mmHg 80%
    11:00 +5°C° 0.3 mm 4 mps 737 mmHg 80%
    12:00 +6°C° 0.3 mm 4 mps 736 mmHg 80%
    13:00 +7°C° 0.3 mm 5 mps 735 mmHg 81%
    14:00 +7°C° 0.1 mm 5 mps 735 mmHg 82%
    15:00 +8°C° 0.1 mm 5 mps 734 mmHg 83%
    16:00 +10°C° 0.1 mm 4 mps 734 mmHg 85%
    17:00 +9°C° 0.1 mm 5 mps 734 mmHg 85%
    18:00 +9°C° 0.1 mm 5 mps 734 mmHg 85%
    19:00 +9°C° 0.1 mm 5 mps 734 mmHg 85%
    20:00 +9°C° 0.1 mm 5 mps 734 mmHg 85%
    21:00 +9°C° 0.1 mm 5 mps 734 mmHg 85%
    22:00 +8°C° 0.1 mm 5 mps 734 mmHg 85%
    23:00 +8°C° 0.1 mm 5 mps 734 mmHg 85%

    26 October, Friday

    Time Temperature Precipitation Wind Pressure Humidity
    00:00 +8°C° 0.1 mm 5 mps 734 mmHg 85%
    01:00 +7°C° 0.1 mm 5 mps 734 mmHg 86%
    02:00 +7°C° 0 mm 4 mps 734 mmHg 86%
    03:00 +7°C° 0 mm 4 mps 734 mmHg 87%
    04:00 +6°C° 0 mm 4 mps 734 mmHg 88%
    05:00 +6°C° 0 mm 4 mps 734 mmHg 88%
    06:00 +6°C° 0 mm 4 mps 734 mmHg 88%
    07:00 +7°C° 0 mm 3 mps 734 mmHg 88%
    08:00 +8°C° 0 mm 3 mps 734 mmHg 84%
    09:00 +9°C° 0 mm 3 mps 734 mmHg 79%
    10:00 +10°C° 0 mm 4 mps 734 mmHg 75%
    11:00 +11°C° 0 mm 4 mps 734 mmHg 72%
    12:00 +11°C° 0 mm 4 mps 734 mmHg 69%
    13:00 +12°C° 0 mm 4 mps 733 mmHg 66%
    14:00 +11°C° 0 mm 4 mps 733 mmHg 68%
    15:00 +11°C° 0 mm 3 mps 732 mmHg 70%
    16:00 +10°C° 0 mm 3 mps 732 mmHg 72%
    17:00 +10°C° 0 mm 3 mps 732 mmHg 75%
    18:00 +9°C° 0 mm 3 mps 732 mmHg 78%
    19:00 +9°C° 0 mm 3 mps 732 mmHg 81%
    20:00 +9°C° 0 mm 3 mps 731 mmHg 82%
    21:00 +9°C° 0 mm 3 mps 731 mmHg 83%
    22:00 +9°C° 0 mm 2 mps 731 mmHg 84%
    23:00 +9°C° 0 mm 2 mps 730 mmHg 85%
    Show more